Location: Vancouver
(49.2500°N, 123.1330°W)
Time: 21:33:14
(UTC-07:00)

ISS - Visible Passes

Search period start: 20 April 2014 00:00
Search period end: 30 April 2014 00:00
Orbit: 414 x 419 km, 51.7° (Epoch: 20 April)

Date Brightness Start Highest point End Pass type
(mag) Time Alt. Az. Time Alt. Az. Time Alt. Az.
20 Apr -2.0 21:34:07 10° W 21:37:09 31° SW 21:38:56 19° SSE visible
21 Apr -2.5 20:45:29 10° WNW 20:48:44 46° SSW 20:51:57 10° SE visible
22 Apr -0.8 21:34:27 10° W 21:36:27 15° SW 21:38:27 10° S visible
